Location: Freiburg+im+Breisgau
(48.0359°N, 7.8195°E)
Time: 18:23:51
(UTC+01:00)

ISS - Pass Details

Date: 12 January 2018
Orbit: 402 x 407 km, 51.6° (Epoch: 19 January)

Event Time Altitude Azimuth Distance (km) Brightness Sun altitude
Exits shadow 06:23:56 59° 252° (WSW) 475 -3.8 -18.0°
Maximum altitude 06:24:19 67° 207° (SSW) 445 -3.8 -18.0°
Drops below altitude 10° 06:27:35 10° 125° (SE) 1,463 0.1 -17.4°
Sets 06:29:40 0° 122° (ESE) 2,322 1.4 -17.1°
